Content
SEND FEEDBACK

Daily
Averages
Monthly
Summary
Canada

LINIERE, QUEBEC


Home > North America > Canada > Quebec
Elevation: 1296 feet     Latitude: 45 55N     Longitude: 070 28W

WEATHER
 
SELECT A DAY
Number of Records: 140,147;   Date Range: 1/1/95 - 7/28/14
 
SHARE

PRINT THIS DATA

[ ← Previous Day ]
WEATHER ALMANAC - JANUARY 23, 2013
[ Next Day → ]
[ °C ]   °F
Weather ElementAverageHighLow
Temperature-14.5 °F-11 °F (1:00 am)-19.3 °F (7:00 am)
Dewpoint-24.3 °F-18 °F (1:00 am)-28.1 °F (10:00 am)
Humidity59.2 %72 % (1:00 am)33 % (1:00 pm)
Barometer30.03 in30.07 in (9:00 am)29.96 in (1:00 am)
Wind Speed4.5 mph10.4 mph (12:00 pm)
Wind Gust19.6 mph (12:00 pm)
Weather ElementAverage
Wind DirectionW (273.8 °)

Weather ElementTotal
Precipitation---
Heating Degree Days80.2 (Base 65)
Averaged from 26 records on January 23, 2013
WEATHER CONDITIONS BREAKOUT
WIND DIRECTION BREAKOUT
WEATHER BY HOUR - JANUARY 23, 2013
[ °C ]   °F
Local TimeTemperatureDewpointHumidityBarometerVisibilityWind DirectionWind SpeedGust SpeedPrecipitationEventsConditions
1:00 AM-11.0 °F-18.0 °F57 %29.96 inWest (260°)4.6 mph
1:00 AM-11.4 °F-18.0 °F72 %29.96 inWest (260°)4.6 mph
2:00 AM-12.5 °F-19.3 °F72 %29.98 inWest (270°)5.8 mph
4:00 AM-14.8 °F-21.6 °F71 %30.00 inWest (270°)3.5 mph
5:00 AM-16.1 °F-23.3 °F70 %30.00 inNW (310°)3.5 mph
6:00 AM-17.5 °F-25.6 °F67 %30.02 inWNW (290°)3.5 mph
7:00 AM-19.3 °F-27.2 °F67 %30.04 inWest (260°)3.5 mph
7:00 AM-19.0 °F-27.0 °F49 %30.04 inWest (260°)3.5 mph
8:00 AM-18.9 °F-27.4 °F65 %30.05 inWest (260°)4.6 mph
9:00 AM-17.3 °F-27.8 °F59 %30.07 inWNW (290°)3.5 mph
10:00 AM-16.1 °F-28.1 °F55 %30.07 inWest (260°)6.9 mph
11:00 AM-13.7 °F-26.0 °F54 %30.06 inWest (260°)8.1 mph17.3 mph
12:00 PM-13.0 °F-25.8 °F53 %30.04 inWSW (250°)10.4 mph19.6 mph
1:00 PM-11.7 °F-25.2 °F51 %30.04 inWest (270°)5.8 mph
1:00 PM-12.0 °F-25.0 °F33 %30.04 inWest (270°)5.8 mph
2:00 PM-11.6 °F-25.4 °F50 %30.03 inWest (280°)5.8 mph
3:00 PM-11.4 °F-24.9 °F51 %30.04 inWest (280°)5.8 mph
4:00 PM-12.8 °F-25.1 °F54 %30.05 inWNW (290°)4.6 mph
5:00 PM-14.3 °F-24.3 °F61 %30.05 inWest (280°)4.6 mph
6:00 PM-14.8 °F-24.5 °F62 %30.05 inWest (280°)3.5 mph
7:00 PM-15.2 °F-25.1 °F61 %30.06 inWest (280°)3.5 mph
7:00 PM-15.0 °F-25.0 °F43 %30.06 inWest (280°)3.5 mph
8:00 PM-15.9 °F-24.7 °F64 %30.06 inWSW (240°)1.2 mph
9:00 PM-14.8 °F-23.8 °F64 %30.04 inWest (280°)2.3 mph
10:00 PM-13.7 °F-22.2 °F66 %30.04 inWNW (300°)2.3 mph
11:00 PM-12.6 °F-20.6 °F68 %30.03 inWNW (290°)3.5 mph
Hourly data recorded from CWHV, located miles away from Liniere, Quebec







STORIES FROM OUR PARTNERS